Weather History for PASI - October, 2012

Change the Weather History Date:

Monday, October 8, 2012

  Actual Average Record
Temperature  
Mean Temperature 53 °F -  
Max Temperature 55 °F 53 °F 59 °F (1979)
Min Temperature 51 °F 43 °F 30 °F (1958)
Degree Days  
Heating Degree Days 12    
Growing Degree Days 3 (Base 50)    
Moisture  
Dew Point 48 °F    
Average Humidity 86    
Maximum Humidity 92    
Minimum Humidity 77    
Precipitation  
Precipitation 0.00 in - - ()
Sea Level Pressure  
Sea Level Pressure 30.17 in    
Wind  
Wind Speed 13 mph (NW)    
Max Wind Speed 20 mph    
Max Gust Speed -    
Visibility 10 miles    
Events      
Averages and records for this station are not official NWS values.
T = Trace of Precipitation, MM = Missing Value Source: NWS Daily Summary

Daily Weather History Graph

Daily Weather History Graph

Search for Another Location

Airport or City:

Trip Planner

Search our weather history database for the weather conditions in past years. The results will help you decide how hot, cold, wet, or windy it might be!

Date:

Astronomy

Oct. 08, 2012 Rise Set
Actual Time 7:21 AM AKDT 6:15 PM AKDT
Civil Twilight 6:42 AM AKDT 6:53 PM AKDT
Nautical Twilight 5:58 AM AKDT 7:37 PM AKDT
Astronomical Twilight 5:13 AM AKDT 8:22 PM AKDT
Moon 11:58 PM AKDT (10/8) 3:20 PM AKDT (10/8)
Length of Visible Light 12h 10m
Length of Day
10h 54m
Last Quarter, 45% of the Moon is Illuminated
Oct 8
Last Quarter
Oct 15
New
Oct 21
First Quarter
Oct 29
Full
Nov 6
Last Quarter

Hourly Weather History & Observations

Time (AKDT) Temp. Dew Point Humidity Pressure Visibility Wind Dir Wind Speed Gust Speed Precip Events Conditions
12:53 AM 52.0 °F 48.0 °F 86% 30.23 in 10.0 mi NW 15.0 mph - N/A   Overcast
1:53 AM 52.0 °F 48.0 °F 86% 30.23 in 10.0 mi NW 15.0 mph - N/A   Overcast
2:53 AM 52.0 °F 48.0 °F 86% 30.22 in 10.0 mi NNW 10.4 mph - N/A   Overcast
3:53 AM 52.0 °F 48.0 °F 86% 30.22 in 10.0 mi NNW 11.5 mph - N/A   Overcast
4:30 AM 51.8 °F 48.2 °F 88% 30.21 in 10.0 mi NW 12.7 mph - N/A   Overcast
4:53 AM 51.1 °F 48.9 °F 92% 30.21 in 10.0 mi NW 12.7 mph - N/A   Overcast
5:53 AM 52.0 °F 48.0 °F 86% 30.20 in 10.0 mi NNW 11.5 mph - N/A   Overcast
6:53 AM 52.0 °F 48.9 °F 89% 30.19 in 10.0 mi NNW 9.2 mph - N/A   Overcast
7:53 AM 51.1 °F 48.9 °F 92% 30.19 in 9.0 mi NW 11.5 mph - 0.00 in   Overcast
8:53 AM 52.0 °F 48.9 °F 89% 30.18 in 9.0 mi NW 9.2 mph - N/A   Overcast
9:53 AM 52.0 °F 48.9 °F 89% 30.18 in 10.0 mi NW 13.8 mph - N/A   Overcast
10:53 AM 53.1 °F 48.0 °F 83% 30.17 in 10.0 mi NW 17.3 mph - N/A   Mostly Cloudy
11:27 AM 53.6 °F 48.2 °F 82% 30.16 in 10.0 mi NW 16.1 mph - N/A   Mostly Cloudy
11:53 AM 53.1 °F 48.9 °F 86% 30.16 in 10.0 mi NW 13.8 mph - N/A   Mostly Cloudy
12:53 PM 53.1 °F 48.9 °F 86% 30.15 in 10.0 mi NW 16.1 mph - N/A   Scattered Clouds
1:53 PM 54.0 °F 48.0 °F 80% 30.15 in 10.0 mi NW 18.4 mph - N/A   Scattered Clouds
2:53 PM 55.0 °F 48.0 °F 77% 30.14 in 10.0 mi NW 18.4 mph - N/A   Scattered Clouds
3:53 PM 55.0 °F 48.0 °F 77% 30.14 in 10.0 mi NW 19.6 mph - N/A   Scattered Clouds
4:53 PM 54.0 °F 46.9 °F 77% 30.13 in 10.0 mi NW 17.3 mph - N/A   Scattered Clouds
5:53 PM 52.0 °F 46.9 °F 83% 30.14 in 10.0 mi NNW 12.7 mph - N/A   Scattered Clouds
6:53 PM 52.0 °F 46.9 °F 83% 30.13 in 10.0 mi NW 9.2 mph - N/A   Scattered Clouds
7:03 PM 51.8 °F 48.2 °F 88% 30.13 in 10.0 mi WNW 10.4 mph - N/A   Mostly Cloudy
7:53 PM 52.0 °F 48.9 °F 89% 30.13 in 10.0 mi West 8.1 mph - N/A   Mostly Cloudy
8:53 PM 52.0 °F 48.9 °F 89% 30.13 in 10.0 mi West 9.2 mph - N/A   Overcast
9:53 PM 52.0 °F 48.9 °F 89% 30.13 in 10.0 mi NW 11.5 mph - N/A   Overcast
10:53 PM 51.1 °F 48.9 °F 92% 30.11 in 10.0 mi WNW 10.4 mph - N/A   Overcast
11:53 PM 51.8 °F 48.2 °F 88% 30.10 in 10.0 mi NW 12.7 mph - N/A   Overcast